Location: *
(48.8489°N, 2.3218°E)
Time: 04:50:17
(UTC+00:00)

Cosmos 1867 - Pass Details

Date: 23 August 2019
Orbit: 775 x 801 km, 65.0° (Epoch: 17 September)

Event Time Altitude Azimuth Distance (km) Brightness Sun altitude
Rises 21:00:50 0° 322° (NW) 3,319 8.4 -18.9°
Reaches altitude 10° 21:03:23 10° 329° (NNW) 2,385 7.2 -19.2°
Maximum altitude 21:08:39 45° 42° (NE) 1,077 4.2 -19.8°
Enters shadow 21:10:54 30° 95° (E) 1,409 4.5 -20.0°
